[Date Prev][Date Next][Thread Prev][Thread Next] - [Date Index][Thread Index][Author Index]
2 Line ISS Keps 4-18
- Subject: [sarex] 2 Line ISS Keps 4-18
- From: "Dave Larsen PhD" <doc@xxxxxxxxxxx>
- Date: Thu, 18 Apr 2002 03:55:29 -0700
ISS
1 25544U 98067A 02108.29293981 .00074180 00000-0 97436-3 0 3248
2 25544 51.6388 353.8271 0007860 350.8693 152.4045 15.57805793194686
----
Via the sarex mailing list at AMSAT.ORG courtesy of AMSAT-NA.
To unsubscribe, send "unsubscribe sarex" to Majordomo@amsat.org
AMSAT Home